Wind_Speed
50 51 52 53 53 52 51 52 52 52 51 51 51 51 51 50 51 51 52 51 51 50 50 50 51 50 49 49 48 48 48 47 46 46 45 45 44 44 44 43 42 41 40
47 48 49 49 50 50 50 50 49 50 50 49 49 49 49 49 49 50 50 50 50 50 50 50 49 49 48 48 48 47 47 47 46 46 45 44 43 42 42 41 40 39 38
43 44 45 46 46 47 47 48 48 48 48 48 48 48 48 48 48 48 48 48 48 48 48 48 48 47 47 46 46 46 46 46 45 44 43 42 42 41 40 40 39 38 38
41 42 43 44 44 45 46 46 46 47 47 46 47 46 47 47 46 46 45 45 45 46 46 46 46 46 46 46 45 45 44 44 43 42 41 41 41 40 39 38 38 37 37
39 40 41 42 43 43 44 45 45 45 45 45 45 45 45 45 45 44 44 44 44 44 44 45 44 44 44 44 44 43 43 42 41 41 40 40 39 38 38 38 37 37 37
38 38 39 40 41 42 43 43 43 43 43 44 44 44 44 44 44 44 44 44 44 43 43 43 43 43 43 42 42 42 41 40 40 39 39 39 38 38 38 37 37 36 36
37 37 37 38 39 40 40 41 42 42 42 43 43 43 43 43 43 43 42 42 42 42 42 42 41 41 41 41 40 40 40 39 39 39 39 38 37 37 37 36 36 36 36
36 36 37 37 38 38 39 39 40 41 41 41 42 42 42 42 42 41 41 41 40 40 40 40 40 39 39 39 39 39 38 38 38 38 37 37 37 36 36 36 36 36 37
36 36 36 37 37 38 38 39 40 40 41 41 41 41 41 41 40 40 39 39 38 38 38 38 38 37 37 37 36 37 37 36 36 36 36 36 36 36 36 36 36 37 37
35 35 36 36 37 37 38 38 38 39 39 40 39 39 39 39 38 38 37 37 37 36 36 36 35 35 35 34 35 35 35 35 35 35 35 35 35 35 36 36 36 37 37
34 34 35 35 36 36 36 36 36 36 37 37 37 37 37 37 36 36 35 35 34 34 34 33 33 33 34 34 34 34 34 34 34 34 35 35 35 35 36 36 37 37 38
33 33 34 34 34 34 35 35 35 35 35 34 34 34 34 34 34 33 33 33 33 32 32 33 33 33 33 33 33 34 34 34 34 34 34 35 35 36 36 37 37 38 38
31 31 32 32 33 33 33 34 33 33 33 32 32 32 32 32 32 32 31 31 31 31 32 32 32 32 32 33 33 33 33 33 33 34 34 35 35 36 37 37 37 38 39
29 29 30 30 31 31 31 31 31 31 31 31 31 31 31 31 31 31 30 30 31 31 31 31 31 31 31 32 32 33 33 33 34 34 35 35 36 37 37 38 38 39 40
28 28 29 30 30 30 30 30 30 30 30 30 30 30 29 29 30 30 30 30 31 31 31 31 31 31 32 32 32 32 33 34 34 34 35 36 37 37 38 39 39 40 41
28 29 29 29 30 30 30 29 29 29 29 30 29 29 29 29 30 30 29 30 30 30 30 30 31 31 32 32 32 33 33 34 34 35 36 37 37 38 39 40 41 41 42
27 28 28 28 28 28 28 28 28 29 29 29 29 29 29 29 29 29 29 30 30 30 30 30 31 32 32 32 33 33 34 35 35 36 37 38 38 39 40 41 42 43 43
27 27 27 27 27 27 28 28 28 28 28 29 29 29 29 29 29 29 29 29 29 30 30 31 32 32 32 33 34 34 35 36 37 38 38 39 40 41 42 43 43 44 44
27 27 27 27 28 28 28 29 29 28 29 29 29 29 30 30 30 30 30 30 30 30 31 31 32 33 33 34 35 36 36 37 38 39 39 40 41 42 43 43 44 45 45
28 29 28 28 28 29 29 29 29 29 29 30 30 31 31 31 31 31 31 31 32 32 32 33 33 34 35 35 36 37 37 38 39 39 40 42 42 43 44 44 45 45 45
28 29 29 29 29 29 29 29 29 29 29 30 30 31 31 32 32 32 32 32 33 33 34 34 35 36 36 37 37 38 39 39 40 41 42 43 43 44 45 46 46 46 46
28 28 28 29 29 29 29 29 29 29 29 29 30 30 31 31 32 32 33 33 34 34 35 35 36 37 37 38 39 39 40 40 41 42 43 44 44 45 46 47 47 47 48
28 28 28 28 28 28 28 28 28 28 29 29 30 30 31 31 32 32 33 34 34 34 35 36 37 37 38 39 40 41 41 42 42 43 44 45 46 47 47 48 48 48 48
27 27 27 27 28 28 28 28 28 29 29 30 30 31 31 31 32 33 33 34 34 35 35 36 37 38 38 39 40 41 41 42 43 44 45 46 47 48 48 48 48 48 47
28 28 28 28 28 28 28 29 29 30 30 31 31 31 32 32 32 33 33 33 34 34 35 36 37 38 38 39 40 41 42 43 44 45 46 47 48 48 48 48 47 46 45
28 28 28 28 28 29 29 30 30 31 31 31 32 32 32 32 32 32 33 33 34 34 35 36 37 38 39 40 41 42 43 44 45 46 47 48 48 47 47 46 45 44 43
Wind_Direction
251 253 254 255 257 259 260 262 264 265 266 268 269 270 272 274 274 274 275 275 276 277 279 281 281 282 283 284 285 285 286 286 286 287 287 288 289 290 290 290 290 289 288
251 253 255 256 258 260 261 263 266 267 268 269 271 272 273 274 275 275 276 276 277 278 279 280 281 281 282 283 284 284 284 285 285 287 287 288 289 289 289 288 288 288 289
252 253 254 256 258 260 262 263 266 268 269 270 271 272 274 274 275 276 277 278 279 279 279 280 280 281 282 282 282 282 283 284 285 286 286 287 287 287 287 287 288 288 289
252 253 255 256 258 260 262 264 266 267 268 270 272 273 274 275 276 276 277 278 278 278 279 280 279 279 280 280 281 282 282 283 284 285 286 286 287 287 287 287 288 289 289
252 254 256 258 259 261 262 264 266 267 269 271 272 273 274 275 275 276 276 277 277 278 279 279 279 279 279 280 281 281 282 283 284 285 285 286 286 286 287 287 288 288 289
253 255 257 258 260 262 264 265 267 268 269 270 272 273 274 274 274 275 275 276 277 278 279 279 279 279 279 280 280 281 282 283 283 284 285 286 286 286 287 287 288 288 289
255 256 258 260 261 263 265 266 268 269 271 271 272 273 274 274 274 274 275 276 277 278 279 279 279 279 279 279 280 281 281 283 283 284 284 285 286 286 287 288 288 289 289
256 258 260 262 263 265 266 268 269 270 271 272 272 273 273 274 274 275 276 277 277 277 278 278 278 279 279 279 280 280 281 282 283 284 284 285 285 286 287 288 289 290 291
257 258 260 262 264 266 267 269 270 271 271 272 272 272 273 273 274 274 275 276 275 276 277 278 278 279 279 280 280 281 282 282 283 283 284 285 285 286 287 289 290 291 291
257 259 261 262 264 265 267 269 270 271 271 271 271 272 273 273 273 273 274 274 275 276 277 277 278 279 279 280 281 281 282 283 283 284 284 285 285 287 288 289 291 291 292
258 259 261 263 264 265 267 269 270 271 271 271 271 271 271 272 272 272 273 273 275 276 277 278 279 279 279 280 281 282 282 282 283 283 285 285 286 287 289 290 291 292 293
259 260 262 263 265 266 268 269 270 271 271 271 270 270 271 271 272 272 272 273 274 275 277 278 279 279 280 280 280 282 282 282 283 284 285 286 287 288 289 291 292 293 294
259 261 262 264 265 267 269 269 270 270 270 270 271 271 271 271 272 272 272 273 274 276 277 279 279 280 280 280 281 281 281 282 283 284 286 287 288 289 291 292 293 294 295
260 262 263 264 266 267 267 269 269 270 270 270 271 272 271 272 272 272 273 274 276 277 279 280 279 280 280 280 281 282 282 283 284 285 286 287 289 290 291 292 294 296 296
263 264 266 266 267 267 267 269 270 270 270 271 271 272 272 271 272 273 274 275 277 278 279 280 279 279 280 281 281 282 284 285 285 286 287 288 290 291 292 293 295 296 297
263 264 266 266 266 267 267 269 270 270 270 270 270 271 271 272 273 274 275 276 277 278 279 279 279 279 280 281 282 284 285 285 286 287 288 290 290 292 293 294 295 296 297
264 265 265 265 266 267 268 269 270 271 271 270 270 271 272 273 273 274 276 277 277 278 278 279 280 280 282 283 284 284 285 285 287 288 289 290 291 293 294 295 296 296 297
264 265 265 266 266 268 269 270 271 271 271 272 272 273 273 274 275 275 276 277 277 278 278 279 280 281 282 283 284 285 286 287 288 289 290 291 292 293 294 295 296 297 297
264 265 265 267 268 269 270 270 271 272 272 273 273 274 274 275 276 276 277 277 278 279 280 280 281 282 283 284 285 286 287 288 289 290 291 292 294 294 295 296 297 297 298
265 265 266 268 269 270 271 271 271 272 273 274 274 274 275 276 276 276 276 277 277 278 280 281 282 283 284 285 286 287 288 289 290 291 292 293 294 295 295 296 297 298 298
265 266 267 268 270 271 272 271 272 272 273 274 274 275 275 275 276 276 277 277 278 279 280 281 282 283 284 286 287 287 288 289 290 291 293 294 295 295 296 296 297 298 298
266 268 269 270 270 271 271 272 273 273 273 274 275 275 276 277 277 278 278 279 279 280 280 281 282 283 285 286 287 288 289 289 290 291 293 294 295 296 296 297 297 297 298
267 268 269 271 271 270 270 271 272 274 275 275 276 277 277 278 279 279 280 280 281 282 282 282 283 283 285 286 288 288 290 291 291 292 293 294 295 296 296 296 297 297 298
267 269 269 270 270 270 270 272 273 274 275 277 278 278 279 280 281 281 281 281 282 282 283 284 284 285 286 287 288 289 291 292 293 293 294 295 295 296 296 296 297 297 297
268 269 269 270 270 270 271 272 274 275 276 277 279 280 280 280 281 282 282 282 282 283 284 285 286 287 288 288 289 290 292 293 293 294 295 295 296 296 296 296 297 296 296
268 269 269 270 271 271 272 273 275 276 277 278 279 280 280 281 282 283 283 283 283 284 286 287 288 289 290 290 291 292 293 294 294 295 296 296 296 295 296 296 296 295 295
Height
5717 5719 5722 5724 5726 5728 5729 5731 5732 5733 5733 5734 5734 5735 5735 5735 5735 5735 5734 5734 5733 5732 5731 5730 5729 5727 5726 5724 5722 5721 5719 5717 5715 5714 5712 5709 5707 5704 5702 5699 5697 5695 5692
5706 5709 5711 5713 5715 5717 5719 5720 5721 5721 5722 5722 5723 5723 5723 5723 5723 5722 5722 5721 5720 5720 5719 5718 5717 5715 5714 5712 5710 5709 5707 5705 5703 5702 5700 5698 5695 5693 5691 5689 5686 5684 5682
5696 5698 5700 5703 5704 5706 5707 5709 5710 5710 5711 5711 5711 5711 5711 5711 5711 5710 5710 5709 5708 5707 5706 5705 5704 5703 5702 5700 5698 5697 5695 5693 5692 5690 5688 5686 5684 5682 5680 5678 5676 5674 5672
5686 5688 5690 5692 5694 5696 5697 5698 5699 5699 5699 5699 5700 5700 5700 5699 5699 5698 5698 5697 5696 5695 5694 5693 5692 5691 5690 5688 5687 5685 5684 5682 5680 5679 5677 5676 5674 5672 5670 5668 5666 5664 5662
5677 5679 5681 5682 5684 5685 5686 5687 5687 5688 5688 5688 5688 5688 5688 5687 5687 5686 5686 5685 5684 5683 5682 5681 5680 5679 5678 5677 5675 5674 5672 5671 5669 5668 5666 5665 5663 5661 5659 5657 5656 5654 5651
5667 5669 5671 5672 5673 5674 5675 5676 5676 5676 5676 5677 5677 5676 5676 5676 5675 5675 5674 5674 5673 5672 5671 5670 5668 5667 5666 5665 5664 5663 5661 5660 5659 5657 5656 5654 5653 5651 5649 5647 5646 5644 5641
5657 5659 5660 5662 5663 5664 5664 5665 5665 5665 5665 5665 5665 5665 5665 5664 5664 5663 5663 5662 5661 5660 5659 5658 5657 5656 5655 5654 5653 5652 5651 5649 5648 5647 5646 5644 5642 5641 5639 5637 5635 5633 5631
5648 5649 5650 5652 5653 5653 5654 5654 5654 5654 5654 5654 5654 5654 5653 5653 5652 5652 5651 5651 5650 5649 5648 5647 5646 5645 5644 5643 5642 5641 5640 5639 5638 5636 5635 5633 5632 5630 5629 5627 5625 5622 5620
5638 5640 5641 5642 5643 5643 5644 5644 5644 5644 5643 5643 5643 5643 5642 5642 5641 5641 5640 5640 5639 5638 5638 5637 5636 5635 5634 5633 5632 5631 5630 5628 5627 5626 5625 5623 5621 5620 5618 5616 5614 5612 5609
5629 5630 5631 5632 5632 5633 5633 5633 5633 5633 5633 5633 5632 5632 5632 5631 5630 5630 5630 5629 5629 5628 5627 5626 5626 5625 5624 5623 5622 5621 5620 5619 5617 5616 5615 5613 5611 5610 5608 5606 5604 5601 5599
5619 5620 5621 5622 5622 5623 5623 5623 5623 5623 5622 5622 5622 5621 5621 5621 5620 5620 5620 5619 5619 5618 5617 5617 5616 5615 5614 5613 5612 5611 5610 5609 5608 5606 5605 5603 5601 5599 5597 5595 5593 5590 5587
5610 5611 5611 5612 5613 5613 5613 5613 5613 5613 5613 5612 5612 5611 5611 5611 5610 5610 5610 5609 5609 5609 5608 5607 5606 5605 5605 5604 5603 5602 5600 5599 5598 5596 5595 5593 5591 5589 5587 5584 5582 5579 5576
5601 5601 5602 5603 5603 5603 5604 5604 5604 5603 5603 5603 5602 5602 5602 5601 5601 5601 5600 5600 5600 5599 5598 5598 5597 5596 5595 5594 5593 5592 5591 5589 5588 5586 5585 5583 5581 5579 5576 5574 5571 5568 5564
5592 5593 5593 5594 5594 5594 5594 5594 5594 5594 5594 5594 5593 5593 5592 5592 5592 5591 5591 5591 5591 5590 5589 5588 5588 5587 5586 5585 5584 5582 5581 5580 5578 5576 5574 5572 5570 5568 5565 5562 5560 5556 5553
5583 5584 5585 5585 5585 5585 5585 5585 5585 5585 5585 5585 5584 5584 5583 5583 5583 5583 5582 5582 5581 5581 5580 5579 5578 5578 5577 5575 5574 5573 5571 5570 5568 5566 5564 5562 5559 5557 5554 5551 5548 5545 5541
5575 5575 5576 5576 5576 5577 5577 5577 5576 5576 5576 5576 5575 5575 5575 5575 5574 5574 5573 5573 5572 5572 5571 5570 5569 5568 5567 5566 5564 5563 5561 5559 5558 5556 5553 5551 5548 5546 5542 5539 5536 5532 5528
5566 5567 5567 5567 5568 5568 5568 5568 5568 5568 5567 5567 5567 5566 5566 5566 5565 5565 5564 5563 5563 5562 5562 5561 5560 5558 5557 5556 5554 5553 5551 5549 5547 5545 5542 5540 5537 5534 5531 5527 5523 5520 5516
5558 5558 5559 5559 5559 5559 5559 5559 5559 5559 5559 5558 5558 5557 5557 5557 5556 5556 5555 5554 5554 5553 5552 5551 5550 5549 5547 5546 5544 5542 5541 5538 5536 5534 5531 5528 5525 5522 5518 5515 5511 5507 5503
5550 5550 5550 5551 5551 5551 5551 5551 5550 5550 5550 5549 5549 5548 5548 5547 5547 5546 5546 5545 5545 5544 5543 5542 5540 5539 5537 5536 5534 5532 5530 5527 5525 5522 5519 5516 5513 5509 5506 5502 5498 5494 5489
5541 5541 5542 5542 5542 5542 5542 5541 5541 5541 5541 5540 5540 5539 5538 5538 5537 5537 5536 5536 5535 5534 5533 5532 5530 5528 5527 5525 5523 5521 5518 5516 5513 5510 5507 5504 5500 5496 5493 5488 5484 5480 5476
5532 5532 5532 5533 5533 5532 5532 5532 5532 5531 5531 5531 5530 5529 5529 5528 5528 5527 5526 5525 5524 5523 5522 5521 5519 5518 5516 5514 5512 5509 5507 5504 5501 5498 5494 5491 5487 5483 5479 5475 5471 5466 5462
5523 5523 5523 5523 5523 5523 5523 5523 5522 5522 5521 5521 5520 5519 5519 5518 5517 5517 5516 5515 5514 5512 5511 5510 5508 5506 5504 5502 5500 5497 5494 5492 5488 5485 5482 5478 5474 5470 5465 5461 5457 5452 5448
5514 5514 5514 5514 5514 5514 5513 5513 5513 5512 5512 5511 5511 5510 5509 5508 5507 5506 5505 5504 5503 5501 5500 5498 5497 5495 5493 5490 5487 5485 5482 5479 5475 5472 5468 5464 5460 5456 5451 5447 5442 5438 5433
5505 5505 5505 5505 5505 5505 5504 5504 5504 5503 5502 5502 5501 5500 5499 5498 5497 5495 5494 5493 5492 5490 5488 5487 5485 5483 5480 5478 5475 5472 5469 5466 5462 5458 5454 5450 5446 5441 5437 5432 5428 5423 5418
5495 5495 5495 5495 5495 5495 5495 5495 5494 5494 5493 5492 5491 5490 5489 5488 5486 5485 5483 5482 5481 5479 5477 5475 5473 5470 5468 5465 5462 5459 5456 5452 5448 5444 5440 5436 5431 5427 5422 5417 5413 5408 5404
5486 5486 5486 5486 5486 5486 5485 5485 5484 5484 5483 5482 5481 5480 5478 5477 5476 5474 5473 5471 5470 5468 5466 5463 5461 5458 5455 5453 5449 5446 5442 5438 5434 5430 5425 5421 5416 5412 5407 5403 5398 5394 5390